FW1203 Weather Reports


time (UTC)temp
C
wind
direction
speed
KPH
gust
KPH
rain 1hr
cm
rain 24hr
cm
rain mn
cm
humidity
%
barometer
mb
20260504024833 17 0 0.0 0.0 0.00 0.00 0.00 61 1004.7
20260504024333 17 253 0.0 1.6 0.00 0.00 0.00 61 1004.6
20260504023833 17 253 0.0 1.6 0.00 0.00 0.00 60 1004.6
20260504023333 17 253 0.0 1.6 0.00 0.00 0.00 60 1004.5
20260504022833 17 255 0.0 1.6 0.00 0.00 0.00 59 1004.5
20260504022333 17 257 0.0 1.6 0.00 0.00 0.00 59 1004.6
20260504021833 17 258 0.0 1.6 0.00 0.00 0.00 59 1004.6
20260504021333 17 259 0.0 1.6 0.00 0.00 0.00 59 1004.6
20260504020833 17 259 0.0 3.2 0.00 0.00 0.00 58 1004.5
20260504020333 17 259 0.0 3.2 0.00 0.00 0.00 58 1004.5
20260504015833 17 261 0.0 3.2 0.00 0.00 0.00 58 1004.5
20260504015333 17 261 0.0 3.2 0.00 0.00 0.00 58 1004.4
20260504014833 17 264 0.0 3.2 0.00 0.00 0.00 58 1004.3
20260504014333 17 240 0.0 1.6 0.00 0.00 0.00 57 1004.3
20260504013833 17 196 0.0 3.2 0.00 0.00 0.00 57 1004.2
20260504013333 17 219 0.0 3.2 0.00 0.00 0.00 57 1004.2
20260504012833 17 239 0.0 3.2 0.00 0.00 0.00 57 1004.1
20260504012333 17 239 0.0 3.2 0.00 0.00 0.00 56 1004.0
20260504011833 18 233 0.0 1.6 0.00 0.00 0.00 56 1004.0
20260504011333 18 233 0.0 1.6 0.00 0.00 0.00 55 1004.0
20260504010833 18 233 0.0 1.6 0.00 0.00 0.00 54 1003.9
20260504010333 18 231 0.0 1.6 0.00 0.00 0.00 54 1004.0
20260504005833 18 231 0.0 1.6 0.00 0.00 0.00 53 1003.9
20260504005333 19 231 0.0 1.6 0.00 0.00 0.00 53 1004.0
20260504004833 19 230 0.0 1.6 0.00 0.00 0.00 52 1004.0
20260504004333 19 254 0.0 4.8 0.00 0.00 0.00 51 1004.0
20260504003833 19 254 1.6 9.7 0.00 0.00 0.00 51 1004.0
20260504003333 20 227 1.6 9.7 0.00 0.00 0.00 50 1004.0
20260504002833 20 218 0.0 3.2 0.00 0.00 0.00 50 1004.0
20260504002333 20 223 1.6 4.8 0.00 0.00 0.00 50 1004.0
20260504001833 20 262 1.6 6.4 0.00 0.00 0.00 50 1004.0
20260504001333 20 231 1.6 9.7 0.00 0.00 0.00 50 1004.0
20260504000833 20 215 1.6 9.7 0.00 0.00 0.00 50 1003.9
20260504000333 20 277 1.6 6.4 0.00 0.00 0.00 49 1004.0
20260503235833 20 249 0.0 6.4 0.00 0.00 0.00 50 1004.0
20260503235333 20 222 1.6 8.0 0.00 0.00 0.00 49 1004.0
20260503234833 20 215 1.6 8.0 0.00 0.00 0.00 49 1003.9
20260503234333 20 254 1.6 6.4 0.00 0.00 0.00 49 1004.0
20260503233833 20 200 1.6 6.4 0.00 0.00 0.00 48 1004.0
20260503233333 20 244 1.6 6.4 0.00 0.00 0.00 48 1004.0
20260503232833 20 241 1.6 6.4 0.00 0.00 0.00 48 1004.0
20260503232333 20 274 1.6 6.4 0.00 0.00 0.00 48 1004.1
20260503231833 20 259 1.6 6.4 0.00 0.00 0.00 48 1004.1
20260503231333 20 246 1.6 8.0 0.00 0.00 0.00 48 1004.2
20260503230833 20 193 3.2 8.0 0.00 0.00 0.00 48 1004.2
20260503230333 20 205 1.6 12.9 0.00 0.00 0.00 47 1004.2
20260503225833 20 240 3.2 12.9 0.00 0.00 0.00 47 1004.2
20260503225333 20 243 3.2 9.7 0.00 0.00 0.00 47 1004.3
20260503224833 20 201 3.2 11.3 0.00 0.00 0.00 47 1004.5
20260503224333 20 204 3.2 11.3 0.00 0.00 0.00 46 1004.5
20260503223833 20 206 4.8 11.3 0.00 0.00 0.00 46 1004.5
20260503223333 20 217 3.2 9.7 0.00 0.00 0.00 47 1004.7
20260503222833 20 194 3.2 8.0 0.00 0.00 0.00 46 1004.7
20260503222333 20 222 1.6 11.3 0.00 0.00 0.00 47 1004.8
20260503221833 20 212 3.2 12.9 0.00 0.00 0.00 46 1004.9
20260503221333 20 258 3.2 12.9 0.00 0.00 0.00 46 1004.9
20260503220833 20 247 3.2 11.3 0.00 0.00 0.00 46 1005.0
20260503220333 20 200 3.2 11.3 0.00 0.00 0.00 47 1005.0
20260503215833 20 214 3.2 11.3 0.00 0.00 0.00 46 1005.0
20260503215333 20 240 4.8 19.3 0.00 0.00 0.00 45 1005.1
20260503214833 20 207 6.4 19.3 0.00 0.00 0.00 45 1005.0
20260503214333 20 209 3.2 14.5 0.00 0.00 0.00 45 1005.2
20260503213833 20 239 3.2 14.5 0.00 0.00 0.00 45 1005.3
20260503213333 20 223 3.2 16.1 0.00 0.00 0.00 45 1005.3
20260503212833 20 183 1.6 16.1 0.00 0.00 0.00 44 1005.2
20260503212333 20 224 4.8 17.7 0.00 0.00 0.00 45 1005.4
20260503211833 20 256 4.8 17.7 0.00 0.00 0.00 44 1005.5
20260503211333 20 245 1.6 14.5 0.00 0.00 0.00 44 1005.6
20260503210833 20 234 3.2 14.5 0.00 0.00 0.00 45 1005.6
20260503210333 20 231 6.4 17.7 0.00 0.00 0.00 43 1005.6
20260503205833 20 201 3.2 17.7 0.00 0.00 0.00 45 1005.6
20260503205333 20 255 1.6 19.3 0.00 0.00 0.00 45 1005.9
20260503204833 19 228 4.8 19.3 0.00 0.00 0.00 45 1005.9
20260503204333 18 224 3.2 14.5 0.00 0.00 0.00 47 1006.0
20260503203833 18 266 3.2 14.5 0.00 0.00 0.00 47 1006.1
20260503203333 18 260 3.2 14.5 0.00 0.00 0.00 48 1006.3
20260503202833 18 213 4.8 14.5 0.00 0.00 0.00 47 1006.4
20260503202333 18 205 4.8 16.1 0.00 0.00 0.00 48 1006.6
20260503201833 18 199 6.4 16.1 0.00 0.00 0.00 47 1006.7
20260503201333 18 213 0.0 14.5 0.00 0.00 0.00 49 1006.9
20260503200833 18 213 3.2 14.5 0.00 0.00 0.00 50 1006.9
20260503200333 18 211 1.6 14.5 0.00 0.00 0.00 53 1007.0
20260503195833 18 252 4.8 14.5 0.00 0.00 0.00 53 1007.0
20260503195333 18 271 1.6 17.7 0.00 0.00 0.00 53 1007.3
20260503194833 18 199 4.8 17.7 0.00 0.00 0.00 52 1007.3
20260503194333 18 226 3.2 14.5 0.00 0.00 0.00 52 1007.3
20260503193833 17 208 3.2 12.9 0.00 0.00 0.00 53 1007.3
20260503193333 17 197 4.8 12.9 0.00 0.00 0.00 52 1007.4
20260503192333 17 198 4.8 17.7 0.00 0.00 0.00 52 1007.6
20260503191833 16 190 6.4 17.7 0.00 0.00 0.00 53 1007.7
20260503191333 16 203 4.8 14.5 0.00 0.00 0.00 54 1007.6
20260503190833 16 201 4.8 14.5 0.00 0.00 0.00 56 1007.8
20260503190333 16 193 3.2 11.3 0.00 0.00 0.00 56 1007.9
20260503185833 15 227 4.8 12.9 0.00 0.00 0.00 56 1007.8
20260503185333 15 201 4.8 12.9 0.00 0.00 0.00 57 1007.9
20260503184833 15 210 4.8 12.9 0.00 0.00 0.00 57 1008.0
20260503184333 15 223 3.2 9.7 0.00 0.00 0.00 58 1008.1
20260503183833 15 195 3.2 8.0 0.00 0.00 0.00 59 1008.2
20260503183333 15 190 3.2 16.1 0.00 0.00 0.00 61 1008.3
20260503182833 15 188 4.8 16.1 0.00 0.00 0.00 61 1008.3
20260503182333 14 211 4.8 12.9 0.00 0.00 0.00 61 1008.6
20260503181833 14 206 3.2 11.3 0.00 0.00 0.00 62 1008.7
20260503181333 13 214 3.2 12.9 0.00 0.00 0.00 63 1008.9
20260503180832 13 227 1.6 12.9 0.00 0.00 0.00 63 1009.1
20260503180333 13 202 4.8 14.5 0.00 0.00 0.00 63 1009.3
20260503175833 13 226 6.4 14.5 0.00 0.00 0.00 64 1009.5
20260503175333 13 211 4.8 12.9 0.00 0.00 0.00 64 1009.7
20260503174833 13 259 3.2 16.1 0.00 0.00 0.00 66 1009.9
20260503173833 12 217 3.2 17.7 0.00 0.00 0.00 66 1010.3
20260503173333 12 242 3.2 12.9 0.00 0.00 0.00 67 1010.4
20260503172833 12 235 3.2 17.7 0.00 0.00 0.00 69 1010.4
20260503172333 12 229 4.8 17.7 0.00 0.00 0.00 69 1010.7
20260503171833 12 225 3.2 17.7 0.00 0.00 0.00 69 1010.6
20260503171333 12 209 4.8 16.1 0.00 0.00 0.00 70 1010.7
20260503170833 12 232 3.2 12.9 0.00 0.00 0.00 70 1010.8
20260503170333 12 203 3.2 12.9 0.00 0.00 0.00 71 1011.0
20260503150833 13 218 3.2 8.0 0.00 0.00 0.00 60 1011.7
20260503150333 13 245 3.2 12.9 0.00 0.00 0.00 60 1011.7
20260503131333 11 238 3.2 9.7 0.00 0.00 0.00 60 1012.7
20260503130833 11 248 3.2 9.7 0.00 0.00 0.00 60 1012.7
20260503130333 11 245 1.6 9.7 0.00 0.00 0.00 60 1012.7
20260503110333 8 247 0.0 4.8 0.00 0.00 0.00 64 1012.6
20260503090333 8 0 0.0 0.0 0.00 0.00 0.00 61 1013.3
20260503081333 8 204 0.0 3.2 0.00 0.00 0.00 61 1013.6
20260503080833 8 206 0.0 4.8 0.00 0.00 0.00 61 1013.5
20260503080333 7 223 0.0 4.8 0.00 0.00 0.00 61 1013.6
20260503072833 8 0 0.0 0.0 0.00 0.00 0.00 61 1013.6
20260503072333 8 209 0.0 1.6 0.00 0.00 0.00 61 1013.7
20260503071833 8 209 0.0 1.6 0.00 0.00 0.00 61 1013.7
20260503070833 8 209 0.0 1.6 0.00 0.00 0.00 61 1013.8
20260503070333 8 209 0.0 1.6 0.00 0.00 0.00 61 1013.9
20260503060333 7 221 0.0 1.6 0.00 0.00 0.00 66 1014.4
20260503054833 6 0 0.0 0.0 0.00 0.00 0.00 70 1014.4
20260503054333 6 0 0.0 0.0 0.00 0.00 0.00 71 1014.5
20260503053833 6 0 0.0 0.0 0.00 0.00 0.00 72 1014.5
20260503053333 6 0 0.0 0.0 0.00 0.00 0.00 73 1014.6
20260503052333 6 0 0.0 0.0 0.00 0.00 0.00 74 1014.7
20260503051833 6 0 0.0 0.0 0.00 0.00 0.00 75 1014.8
20260503051333 6 0 0.0 0.0 0.00 0.00 0.00 75 1014.8
20260503050833 6 0 0.0 0.0 0.00 0.00 0.00 75 1014.8
20260503050333 5 0 0.0 0.0 0.00 0.00 0.00 76 1014.9
20260503045833 5 0 0.0 0.0 0.00 0.00 0.00 77 1014.9
20260503045333 5 0 0.0 0.0 0.00 0.00 0.00 78 1014.9
20260503044833 5 0 0.0 0.0 0.00 0.00 0.00 80 1014.9
20260503044333 5 0 0.0 0.0 0.00 0.00 0.00 82 1014.9
20260503043833 5 0 0.0 0.0 0.00 0.00 0.00 83 1014.9
20260503043333 5 0 0.0 0.0 0.00 0.00 0.00 83 1014.9
20260503042833 5 0 0.0 0.0 0.00 0.00 0.00 83 1014.9
20260503042333 5 0 0.0 0.0 0.00 0.00 0.00 84 1015.0
20260503041833 5 0 0.0 0.0 0.00 0.00 0.00 84 1015.0
20260503041333 5 0 0.0 0.0 0.00 0.00 0.00 84 1015.0
20260503040833 5 0 0.0 0.0 0.00 0.00 0.00 84 1015.0
20260503040333 5 0 0.0 0.0 0.00 0.00 0.00 84 1015.0
20260503035833 5 0 0.0 0.0 0.00 0.00 0.00 84 1015.0
20260503035333 5 0 0.0 0.0 0.00 0.00 0.00 84 1015.0
20260503034833 5 0 0.0 0.0 0.00 0.00 0.00 84 1015.1
20260503034333 5 0 0.0 0.0 0.00 0.00 0.00 84 1015.1
20260503033833 5 0 0.0 0.0 0.00 0.00 0.00 84 1015.1
20260503033333 5 0 0.0 0.0 0.00 0.00 0.00 84 1015.1
20260503032833 6 0 0.0 0.0 0.00 0.00 0.00 83 1015.2
20260503032333 6 0 0.0 0.0 0.00 0.00 0.00 83 1015.2
20260503031833 6 0 0.0 0.0 0.00 0.00 0.00 83 1015.2
20260503031333 6 0 0.0 0.0 0.00 0.00 0.00 83 1015.3
20260503030833 6 0 0.0 0.0 0.00 0.00 0.00 83 1015.3
20260503030333 6 0 0.0 0.0 0.00 0.00 0.00 83 1015.4
20260503025833 6 0 0.0 0.0 0.00 0.00 0.00 83 1015.4
20260503025333 6 0 0.0 0.0 0.00 0.00 0.00 82 1015.3